Other Public Products
Issued by NWS Charleston, SC

Current Version | Previous Version | Text Only | Print | Product List | Glossary Off
Versions: 1 2 3 4 5 6 7 8 9 10 11 12 13 14 15 16 17 18 19 20 21 22 23 24 25 26 27 28 29 30 31 32 33 34 35 36 37 38 39 40 41 42 43 44 45 46 47 48 49 50

909
FPUS82 KCHS 030727
OPUCHS

TEST...KCHS/KSAV Gateway Observations...TEST
National Weather Service Charleston SC
200 AM EST SAT DEC 03 2016

NOTE: "fair" indicates few or no clouds below 12,000 feet with no
significant weather and/or obstructions to visibility.

SCZ050-WAZ558-NCZ071-TXZ119-213-PAZ071-DCZ001-FLZ074-172-MI076-
NYZ176-178-MAZ016-IL014-TNZ027-NJZ106-GAZ044-MD014-030800-
...Gateway Observations for Charleston International...

CITY           SKY/WX    TMP DP  RH WIND       PRES   REMARKS
Chas Airport   PTCLDY    41  37  86 CALM      30.22S
Seattle        CLOUDY    47  44  90 SW9       30.17R
Charlotte      MOCLDY    39  27  62 N3        30.23R
Dallas DFW     CLOUDY    57  37  47 E8        30.12F
Dallas Love    CLOUDY    56  40  55 E6        30.13F
Philladelphia  MOCLDY    42  30  62 W13       30.04R
Wash National  MOCLDY    45  28  51 W10       30.15
Baltimore      CLOUDY    43  29  57 W15G21    30.10S
Miami          PTCLDY    74  68  81 NE8       30.05F
Detroit        PTCLDY    34  27  75 W7        30.26R WCI  28
Newark         MOCLDY    43  31  62 W12       29.94R
Laguardia      CLOUDY    46  31  55 W13       29.91R
J F K          MOCLDY    45  30  55 W20G28    29.93R
Boston Logan   MOCLDY    40  31  70 NW14      29.77R WCI  32
Ft. Lauderdale CLOUDY    76  68  76 NE10      30.05F
Chicago O`Hare CLOUDY    33  24  69 SW3       30.31R
Chicago Midway CLOUDY    35  21  56 VRB5      30.32R WCI  31
Houston Bush   CLOUDY    54  47  77 NE14      30.00F
Houston Hobby  LGT RAIN  58  52  80 E17G23    29.97F
Nashville      MOCLDY    40  31  70 N7        30.33F WCI  35
Atlanta        CLOUDY    45  33  63 NW9       30.24F

$$

GAZ044-118-TXZ119-213-NCZ071-DCZ001-MDZ014-506-PAZ021-071-NJZ106-
NYZ176-178-MAZ106-OHZ011-021-055-MIZ076-KYZ091-ILZ014-INZ047-
MNZ060-030800-
...Gateway Observations for Savannah International...

CITY           SKY/WX    TMP DP  RH WIND       PRES   REMARKS
Savannah Arpt  PTCLDY    42  39  89 W3        30.22F
Atlanta        CLOUDY    45  33  63 NW9       30.24F
Charlotte      MOCLDY    39  27  62 N3        30.23R
Dallas DFW     CLOUDY    57  37  47 E8        30.12F
Houston Bush   CLOUDY    54  47  77 NE14      30.00F
Wash National  MOCLDY    45  28  51 W10       30.15
Wash Dulles    MOCLDY    42  27  55 NW24      30.12
Baltimore      CLOUDY    43  29  57 W15G21    30.10S
Philadelphia   MOCLDY    42  30  62 W13       30.04R
Newark         MOCLDY    43  31  62 W12       29.94R
Laguardia      CLOUDY    46  31  55 W13       29.91R
J F K          MOCLDY    45  30  55 W20G28    29.93R
Boston         MOCLDY    40  31  70 NW14      29.77R WCI  32
Pittsburg      CLOUDY    37  30  75 W10       30.20R WCI  30
Akron          CLOUDY    36  28  73 NW9       30.22S WCI  29
Cleveland      CLOUDY    38  28  67 W9        30.26R WCI  31
Cincinnati     NOT AVBL
Columbus       CLOUDY    37  32  83 NW5       30.29R WCI  33
Detroit        PTCLDY    34  27  75 W7        30.26R WCI  28
Chicago O`Hare CLOUDY    33  24  69 SW3       30.31R
Minneapolis    NOT AVBL
Indianapolis   NOT AVBL

$$




USA.gov is the U.S. government's official web portal to all federal, state and local government web resources and services.